Location: Boiro
(42.6475°N, 8.8834°W)
Time: 20:49:55
(UTC+01:00)

PCSat - Visible Passes

Search period start: 22 January 2022 00:00
Search period end: 01 February 2022 00:00
Orbit: 784 x 794 km, 67.1° (Epoch: 22 January)

Date Brightness Start Highest point End Pass type
(mag) Time Alt. Az. Time Alt. Az. Time Alt. Az.
22 Jan 10.8 08:06:43 10° NNW 08:11:49 40° NE 08:16:53 10° ESE visible
23 Jan 11.2 07:35:49 10° NNW 07:40:36 30° NE 07:45:22 10° ESE visible
24 Jan 11.5 07:04:58 10° N 07:09:20 24° NE 07:13:41 10° E visible
25 Jan 11.8 06:34:12 10° N 06:38:01 19° NE 06:41:49 10° E visible
25 Jan 9.6 08:16:38 10° NNW 08:22:06 83° WSW 08:27:30 10° SSE visible
26 Jan 12.0 06:03:53 11° N 06:06:39 15° NE 06:09:44 10° ENE visible
26 Jan 9.8 07:45:34 10° NNW 07:51:00 73° ENE 07:56:25 10° SE visible
27 Jan 12.2 05:33:53 11° NNE 05:35:14 12° NNE 05:37:19 10° ENE visible
27 Jan 10.2 07:14:36 10° NNW 07:19:53 54° NE 07:25:11 10° SE visible
28 Jan 10.7 06:44:40 16° NNW 06:48:43 41° NE 06:53:48 10° ESE visible
29 Jan 11.1 06:14:50 21° N 06:17:30 31° NE 06:22:17 10° ESE visible
29 Jan 10.0 07:55:53 10° NW 08:00:59 43° WSW 08:06:04 10° S visible
30 Jan 11.4 05:45:06 23° NNE 05:46:14 24° NE 05:50:37 10° E visible
30 Jan 9.6 07:25:50 17° NW 07:30:00 59° WSW 07:35:18 10° SSE visible
31 Jan 11.9 05:15:27 19° NE 05:15:27 19° NE 05:18:46 10° E visible
31 Jan 9.4 06:56:12 30° NW 06:58:58 81° WSW 07:04:22 10° SSE visible
31 Jan 11.2 21:35:20 10° SSW 21:37:26 24° SSW 21:37:26 24° SSW visible
